RH
58 57 56 54 52 50 47 46 44 42 40 39 38 36 34 32 32 31 31 31 32 32 31 31 31 32 33 34 36 37 38 39 40 41 41 41 42 42 43 43 44 44 45 46 46 46 46 47 48 49 50 51 52 53 54 55 56 57 58 59 60 62 63 65 66 67 69 72 76
56 54 52 50 47 45 43 41 40 38 37 36 35 35 34 33 32 32 31 31 31 31 31 30 31 32 33 35 36 37 38 39 40 40 40 41 41 42 42 43 43 44 44 45 45 46 46 47 47 48 49 50 51 53 54 54 55 56 57 59 60 61 63 65 67 68 69 71 73
52 50 48 45 43 41 39 37 36 34 34 34 34 34 34 34 33 32 31 31 30 30 30 30 31 32 34 35 36 37 37 38 39 39 39 40 40 41 42 43 43 43 43 43 44 44 45 46 47 48 49 50 51 52 53 54 56 57 58 60 60 61 62 65 66 67 68 69 70
48 46 44 41 39 37 35 33 32 32 33 33 34 35 35 34 33 32 31 30 30 30 30 30 31 33 34 35 35 36 37 37 38 38 39 39 40 41 42 43 43 43 43 43 43 44 44 44 45 47 48 50 51 52 53 54 55 57 58 60 61 65 69 72 69 66 65 67 67
44 42 40 38 35 34 32 31 31 32 33 34 35 35 35 34 32 31 30 30 30 30 30 31 32 33 34 34 35 35 36 36 37 38 39 40 40 41 41 42 43 43 43 43 43 43 43 44 44 45 46 48 49 50 51 52 54 56 58 60 61 63 64 64 63 64 64 66 66
40 38 37 35 33 32 32 32 32 33 34 34 34 34 34 33 32 31 31 30 30 30 30 32 32 33 33 34 34 34 35 35 36 37 38 39 40 41 41 41 42 42 42 43 43 43 43 44 44 45 45 46 46 47 49 50 53 55 58 59 60 61 62 62 62 63 64 65 66
36 35 34 33 32 32 33 33 34 34 34 34 33 33 32 32 32 31 31 31 31 31 31 32 32 32 33 33 33 34 34 35 36 38 39 39 40 41 41 41 42 43 43 43 44 45 45 46 46 46 45 45 46 47 49 51 53 55 56 58 58 59 59 60 61 61 62 63 64
34 33 33 32 33 33 34 35 35 35 34 33 33 32 32 32 32 31 31 32 31 31 32 32 32 32 32 32 33 33 35 35 36 37 38 39 39 39 40 40 42 43 44 45 46 47 47 48 48 48 48 49 51 51 52 52 53 54 54 55 56 57 58 59 59 60 60 61 61
33 33 33 33 34 34 35 35 35 35 34 33 33 32 32 32 32 32 32 32 32 32 32 33 32 33 33 33 33 34 35 36 36 37 37 38 38 38 39 40 42 43 45 46 47 48 48 49 49 49 50 50 51 51 51 51 52 52 53 54 55 56 56 57 57 57 58 58 59
33 34 34 34 35 35 35 35 35 35 34 34 33 33 33 33 33 33 33 33 33 33 33 33 33 33 33 33 33 34 34 36 36 36 36 36 36 37 38 40 42 44 45 47 47 48 48 48 49 49 49 49 50 50 50 50 51 51 52 52 53 53 54 54 54 55 55 55 55
34 34 35 35 35 35 35 35 35 35 35 34 35 35 35 35 34 34 34 34 34 34 33 33 33 33 33 33 34 34 35 36 36 36 36 36 37 38 39 41 42 44 45 46 47 47 48 48 48 48 48 48 48 48 49 49 49 50 50 50 51 51 51 52 52 53 53 53 53
35 35 35 35 36 36 36 36 35 35 35 35 35 35 36 36 35 35 35 35 35 34 34 33 33 33 34 35 35 35 36 36 36 36 36 36 38 39 40 41 42 43 44 45 46 46 46 46 46 46 46 47 47 47 47 48 48 49 49 49 49 50 50 50 51 51 51 51 52
36 36 36 36 36 36 36 36 36 35 35 36 36 36 36 37 36 36 36 36 36 35 34 34 34 35 36 36 36 36 36 36 36 36 37 38 39 40 41 41 42 43 43 43 43 43 44 44 44 44 45 45 46 46 46 47 47 48 48 48 48 49 49 49 50 50 51 51 51
37 37 36 36 36 36 36 36 36 36 36 36 36 36 36 36 36 36 36 36 36 35 35 35 36 37 37 37 37 37 36 36 36 37 38 39 40 41 41 42 42 42 42 42 42 42 42 43 43 44 44 45 45 46 46 47 47 47 47 48 48 49 49 49 49 50 50 51 51
37 37 37 36 36 35 36 36 36 36 36 37 36 36 36 36 36 36 36 36 36 36 36 37 38 38 38 38 38 37 37 37 38 39 39 40 41 42 42 42 42 41 41 41 42 42 43 43 43 43 44 44 45 45 45 46 46 46 47 47 47 48 48 49 49 50 50 51 51
38 37 37 37 36 36 36 36 36 37 37 37 36 36 36 36 36 36 36 36 36 37 38 38 39 39 38 38 38 39 39 40 40 40 41 41 42 42 42 41 41 41 41 41 42 42 43 43 43 43 43 44 44 44 44 44 44 45 45 46 46 47 48 48 49 50 51 51 52
38 38 38 37 37 37 37 37 37 37 37 37 37 36 36 36 36 37 37 37 38 38 39 39 39 39 39 39 40 40 40 40 41 41 41 41 41 41 41 41 41 41 41 41 42 42 42 42 43 43 43 43 43 43 43 44 44 45 46 46 47 48 48 49 50 50 51 51 52
38 38 38 38 38 38 38 38 38 37 37 37 37 37 37 37 37 37 38 38 39 39 40 40 39 39 39 40 40 40 41 41 41 41 41 41 41 41 41 42 42 41 42 42 42 42 42 42 42 42 42 42 43 43 44 45 45 46 46 47 48 48 49 49 50 50 50 51 51
38 39 39 38 38 38 38 38 38 38 37 37 38 38 38 38 38 38 39 39 40 40 40 40 39 39 39 40 40 40 41 41 41 41 41 41 42 42 42 42 42 42 42 42 42 42 42 42 42 42 43 43 44 44 44 45 45 46 46 47 48 48 48 48 49 49 49 50 50
38 39 39 39 39 39 38 38 38 38 38 38 38 38 38 39 39 39 39 39 40 40 40 39 39 39 40 40 41 41 41 41 42 42 42 42 42 42 42 42 42 42 41 41 41 41 41 42 42 43 43 43 43 43 43 44 45 45 46 46 47 47 47 47 48 48 48 49 49
37 38 39 39 39 38 38 38 38 38 38 38 39 39 39 39 39 39 40 40 40 40 40 40 40 40 41 41 41 42 42 42 42 42 42 42 42 41 41 41 40 41 41 42 42 42 42 43 43 43 43 43 43 43 44 44 45 45 45 46 46 46 47 47 48 48 49 49 49
36 37 37 38 38 38 38 38 38 39 39 39 39 39 39 40 40 40 40 40 40 40 40 40 40 41 41 42 42 42 42 42 42 42 42 41 41 40 40 40 40 41 42 43 43 43 43 43 43 44 44 44 44 44 44 45 45 45 45 45 46 47 48 48 49 49 48 48 47
34 35 36 37 37 38 38 39 39 39 40 40 40 40 40 40 40 41 41 41 41 41 41 41 41 41 41 42 42 42 42 42 42 41 41 41 40 40 40 40 41 42 42 42 42 42 42 42 43 43 44 44 45 45 45 45 45 45 46 46 47 48 48 48 48 47 46 46 44
33 34 35 36 37 38 39 39 40 40 40 41 40 41 41 41 41 41 41 41 41 41 41 41 41 41 42 42 42 42 41 41 40 40 39 39 40 40 41 42 42 42 42 42 41 41 41 42 43 43 44 44 45 45 45 45 45 46 47 47 47 47 47 46 45 44 43 41 39
33 34 35 36 38 39 40 40 40 41 41 41 41 41 41 41 41 41 41 41 41 41 41 41 41 42 42 41 41 40 39 39 39 39 39 40 41 42 42 43 42 42 41 41 41 41 41 42 43 43 44 44 45 45 45 45 46 46 47 47 46 46 44 43 41 40 37 35 33
33 35 36 37 38 39 40 40 40 40 40 40 41 40 40 40 40 40 40 40 40 41 41 41 41 41 40 40 39 39 39 40 40 41 42 43 43 42 42 41 41 40 40 40 41 41 42 42 43 43 44 45 45 45 45 46 46 46 45 45 43 42 40 38 36 34 32 30 28
34 35 36 38 38 39 40 40 40 40 40 40 40 40 40 40 40 40 39 39 39 40 40 40 40 40 40 40 40 41 42 42 42 42 42 42 41 40 40 40 40 40 40 41 41 42 42 43 44 44 45 45 45 45 45 45 44 44 43 41 39 37 35 32 30 28 26 25 24
35 36 37 38 39 39 40 40 40 40 39 39 39 39 39 39 39 39 39 39 39 40 40 40 41 41 41 42 42 42 42 42 41 41 40 39 39 39 39 40 40 41 41 42 42 43 43 44 44 45 45 45 44 44 43 42 41 40 38 36 34 32 29 27 25 24 23 22 22
35 36 37 38 38 39 39 39 39 39 39 38 39 39 39 39 39 39 39 39 40 40 41 41 42 42 42 42 42 41 40 39 38 38 38 38 38 39 40 40 41 41 42 43 43 43 44 44 44 44 43 42 42 41 40 39 37 36 33 31 29 27 25 24 23 22 22 22 22
36 36 37 37 38 38 39 38 38 38 38 38 38 38 39 38 39 39 39 40 40 41 41 41 41 41 40 39 39 38 37 37 37 37 38 39 39 40 41 41 42 42 43 43 43 43 43 43 42 41 40 39 38 37 36 35 33 31 29 27 25 24 23 23 23 23 23 23 24
36 36 37 37 37 37 38 38 38 38 38 38 38 38 38 38 39 39 40 40 40 40 39 39 38 38 37 36 36 36 36 37 38 38 39 40 40 41 41 41 42 42 43 43 42 42 41 40 39 38 37 36 34 33 32 31 29 27 26 25 24 24 24 24 24 24 25 25 25
36 36 36 36 36 37 37 38 38 38 38 38 38 38 38 38 39 39 39 39 38 37 36 36 35 35 35 35 36 36 37 38 39 39 40 41 41 42 42 42 42 42 41 41 40 39 38 37 36 35 34 32 31 30 29 27 26 25 25 24 24 25 25 25 25 25 25 24 24
36 36 36 36 36 37 37 38 38 38 38 38 38 38 38 38 37 37 36 36 35 35 34 34 34 35 35 36 36 37 38 39 40 41 41 41 42 42 42 41 40 40 39 39 38 37 36 35 34 32 31 30 29 27 26 26 25 25 25 25 25 25 25 25 24 24 23 22 22
37 36 36 36 36 37 37 38 38 38 37 37 37 37 36 36 35 34 34 33 33 33 33 34 35 35 36 37 38 39 40 40 41 41 41 41 41 41 40 39 38 38 37 36 36 35 34 33 31 30 29 28 27 26 25 25 25 25 25 25 24 24 23 23 22 21 21 20 19
37 37 37 37 36 37 37 37 36 36 36 35 35 34 34 33 33 32 32 32 33 33 34 35 36 37 38 39 39 40 40 40 40 40 40 40 40 39 38 37 37 36 35 35 34 33 32 30 29 28 27 26 25 25 25 24 24 24 23 23 22 21 21 20 19 19 19 18 18
37 37 36 36 36 35 35 35 35 34 34 33 32 32 32 32 32 32 33 33 34 34 35 36 37 38 39 40 40 40 40 40 39 39 39 39 38 37 36 36 35 35 34 33 32 31 30 28 27 26 25 25 24 24 23 23 23 22 21 21 20 19 19 18 18 18 18 18 19
37 36 35 35 34 34 33 33 32 32 32 31 31 31 31 32 32 33 34 34 35 36 37 38 39 39 40 40 40 39 39 39 38 38 37 37 37 36 35 35 34 34 33 32 30 29 28 27 25 24 24 23 23 22 22 21 20 20 19 19 19 18 18 18 18 18 19 19 20
36 35 34 33 33 32 32 31 31 31 31 31 31 32 32 32 33 34 35 36 37 37 38 38 39 39 39 39 39 38 38 38 38 37 37 36 36 36 35 34 33 32 31 30 28 27 25 24 23 23 22 21 21 20 20 19 19 19 19 18 18 18 18 19 19 20 20 20 20
35 34 33 32 31 31 30 31 31 31 31 32 32 32 33 33 34 35 36 37 38 38 38 38 39 39 39 39 38 38 38 38 37 37 37 36 36 35 34 33 31 30 28 27 25 24 23 22 21 21 20 20 19 19 19 19 18 19 19 19 19 19 20 20 20 21 21 21 20
34 33 32 31 30 30 31 31 31 32 32 32 32 33 34 34 35 36 37 38 38 38 38 38 38 38 38 38 38 37 37 37 37 37 36 36 35 34 32 30 28 26 25 23 22 21 20 20 20 20 19 19 19 19 19 19 19 19 19 19 20 20 21 21 21 21 21 20 18
33 32 31 31 31 31 31 32 32 32 32 33 33 34 35 35 36 37 37 37 37 37 38 38 38 38 38 38 37 37 37 37 36 36 35 34 33 32 30 29 27 25 23 21 20 20 19 19 19 19 19 19 19 19 19 19 19 20 20 20 21 22 22 22 21 20 19 17 16